Location: East Arcadia
(34.1056°N, 118.0176°W)
Time: 08:42:10
(UTC+00:00)

DELTA 2 R/B (1) - Pass Details

Date: 08 December 2023
Orbit: 788 x 802 km, 39.6° (Epoch: 24 February)

Event Time Altitude Azimuth Distance (km) Brightness Sun altitude
Rises 02:27:06 0° 242° (WSW) 3,289 8.2 -21.1°
Reaches altitude 10° 02:29:35 10° 241° (WSW) 2,359 7.1 -21.6°
Maximum altitude 02:35:09 80° 156° (SSE) 808 3.5 -22.7°
Enters shadow 02:36:22 56° 81° (E) 940 3.5 -23.0°
